Regional Weather Roundup
Issued by NWS

Home | Current Version | Previous Version | Graphics & Text | Print | Product List | Glossary On
Versions: 1 2 3 4 5 6 7 8 9 10 11 12 13 14 15 16 17 18 19 20 21 22 23 24 25 26 27 28 29 30 31 32 33 34 35 36 37 38 39 40 41 42 43 44 45 46 47 48 49 50
000
ASUS43 KLMK 032102
RWRKY
KENTUCKY REGIONAL WEATHER ROUNDUP
NATIONAL WEATHER SERVICE LOUISVILLE KY
500 PM EDT FRI JUL 03 2015

NOTE "FAIR" INDICATES FEW OR NO CLOUDS BELOW 12,000 FEET
WITH NO SIGNIFICANT WEATHER AND/OR OBSTRUCTIONS TO VISIBILITY.

KYZ001>023-026-027-061>063-070>075-032200-
WESTERN AND SOUTH CENTRAL KENTUCKY

CITY           SKY/WX    TMP DP  RH WIND       PRES   REMARKS
PADUCAH        TSTM      71  67  87 S7G21     29.87R FOG
HENDERSON      PTSUNNY   82  70  65 W8        29.82F
OWENSBORO      CLOUDY    82  70  67 NW10      29.83F
HOPKINSVILLE   CLOUDY    81  72  73 SW15      29.85F
BOWLING GREEN  CLOUDY    81  70  69 W9G20     29.86R
GLASGOW        NOT AVBL
$$

KYZ024-025-028>034-038-045-046-053-032200-
NORTH CENTRAL KENTUCKY

CITY           SKY/WX    TMP DP  RH WIND       PRES   REMARKS
LOUISVILLE/SDF CLOUDY    77  70  79 N5        29.83F
LOUISVILLE/LOU CLOUDY    76  71  85 NW6       29.83F
FORT KNOX      PTSUNNY   74  71  90 VRB3      29.83S
$$

KYZ035>037-039>044-047>052-055>060-089>105-032200-
NORTHEAST KENTUCKY

CITY           SKY/WX    TMP DP  RH WIND       PRES   REMARKS
LEXINGTON      LGT RAIN  71  69  93 NW3       29.85F
COVINGTON      CLOUDY    74  65  73 N14       29.86F
FRANKFORT      CLOUDY    74  70  87 S6        29.83F
$$

KYZ054-064>069-076>088-106>120-032200-
SOUTHEAST KENTUCKY

CITY           SKY/WX    TMP DP  RH WIND       PRES   REMARKS
JACKSON        MOSUNNY   76  68  76 VRB3      29.89S
LONDON         PTSUNNY   79  65  62 SW9       29.87F
SOMERSET       NOT AVBL
MIDDLESBORO    RAIN      75  71  87 CALM      29.89F
MONTICELLO     PTCLDY    80  72  76 SW13      29.89F
$$



USA.gov is the U.S. government's official web portal to all federal, state and local government web resources and services.